Location: Caltech
(34.1382°N, 118.1253°W)
Time: 22:44:29
(UTC-07:00)

A-11 Canister half - All Passes

Search period start: 04 September 2015 00:00
Search period end: 14 September 2015 00:00
Orbit: 1518 x 1682 km, 47.2° (Epoch: 03 September)

Date Brightness Start Highest point End Pass type
(mag) Time Alt. Az. Time Alt. Az. Time Alt. Az.
04 Sep - 01:58:43 10° S 02:05:27 24° SE 02:12:36 10° ENE visible
04 Sep - 04:00:15 10° SW 04:09:33 87° SE 04:19:06 10° NE visible
04 Sep - 06:06:28 10° W 06:15:20 44° NNW 06:24:27 10° NE daylight
04 Sep - 08:13:32 10° WNW 08:22:22 39° N 08:31:29 10° ENE daylight
04 Sep - 10:18:58 10° NW 10:28:44 73° NNE 10:38:48 10° ESE daylight
04 Sep - 12:24:28 10° WNW 12:33:28 40° SW 12:42:30 10° SSE daylight
05 Sep - 01:36:16 10° S 01:42:37 22° SE 01:49:26 10° E visible
05 Sep - 03:37:24 10° SW 03:46:39 82° SE 03:56:11 10° NE visible
05 Sep - 05:43:28 10° W 05:52:20 45° NNW 06:01:28 10° NE visible
05 Sep - 07:50:35 10° WNW 07:59:20 39° N 08:08:24 10° ENE daylight
05 Sep - 09:56:05 10° NW 10:05:47 69° NNE 10:15:48 10° ESE daylight
05 Sep - 12:01:28 10° WNW 12:10:35 43° SW 12:19:47 10° SSE daylight
06 Sep - 01:13:52 10° SSE 01:19:48 20° SE 01:26:13 10° E visible
06 Sep - 03:14:33 10° SW 03:23:47 78° SE 03:33:15 10° NE visible
06 Sep - 05:20:27 10° W 05:29:21 46° NNW 05:38:30 10° NE visible
06 Sep - 07:27:37 10° WNW 07:36:19 38° N 07:45:19 10° ENE daylight
06 Sep - 09:33:11 10° NW 09:42:50 66° NNE 09:52:48 10° ESE daylight
06 Sep - 11:38:28 10° WNW 11:47:42 46° SW 11:57:02 10° SSE daylight
07 Sep - 00:51:32 10° SSE 00:56:59 18° SE 01:02:57 10° E visible
07 Sep - 02:51:44 10° SW 03:00:55 74° SE 03:10:19 10° ENE visible
07 Sep - 04:57:26 10° W 05:06:23 48° NNW 05:15:32 10° NE visible
07 Sep - 07:04:39 10° WNW 07:13:17 38° N 07:22:14 10° ENE daylight
07 Sep - 09:10:18 10° NW 09:19:52 63° NNE 09:29:46 10° ESE daylight
07 Sep - 11:15:31 10° WNW 11:24:50 49° SW 11:34:17 10° SSE daylight
08 Sep - 00:29:16 10° SSE 00:34:09 16° SE 00:39:37 10° E visible
08 Sep - 02:28:54 10° SW 02:38:03 70° SE 02:47:24 10° ENE visible
08 Sep - 04:34:26 10° W 04:43:24 49° NNW 04:52:35 10° NE visible
08 Sep - 06:41:40 10° WNW 06:50:16 37° N 06:59:09 10° ENE daylight
08 Sep - 08:47:24 10° NW 08:56:55 61° NNE 09:06:45 10° ESE daylight
08 Sep - 10:52:34 10° WNW 11:01:57 52° SW 11:11:30 10° SSE daylight
08 Sep - 13:04:29 10° WSW 13:05:57 10° SW 13:06:25 10° SW daylight
09 Sep - 00:07:08 10° SSE 00:11:19 15° SE 00:16:12 10° E visible
09 Sep - 02:06:07 10° SW 02:15:11 65° SE 02:24:27 10° ENE visible
09 Sep - 04:11:27 10° W 04:20:26 51° NNW 04:29:38 10° NE visible
09 Sep - 06:18:41 10° WNW 06:27:15 37° N 06:36:05 10° ENE daylight
09 Sep - 08:24:30 10° NW 08:33:56 58° NNE 08:43:42 10° ESE daylight
09 Sep - 10:29:37 10° WNW 10:39:03 55° SW 10:48:42 10° SSE daylight
09 Sep - 12:39:38 10° WSW 12:43:05 12° SW 12:45:39 10° SW daylight
09 Sep - 23:45:08 10° SSE 23:48:30 13° SE 23:52:36 10° E night (unlit)
10 Sep - 01:43:20 10° SW 01:52:20 61° SE 02:01:31 10° ENE visible
10 Sep - 03:48:27 10° W 03:57:29 53° NNW 04:06:42 10° NE visible
10 Sep - 05:55:42 10° WNW 06:04:14 37° N 06:13:01 10° ENE visible
10 Sep - 08:01:36 10° NW 08:10:58 56° NNE 08:20:40 10° ESE daylight
10 Sep - 10:06:41 10° WNW 10:16:10 59° SW 10:25:54 10° SSE daylight
10 Sep - 12:15:46 10° W 12:20:13 13° SW 12:23:55 10° SSW daylight
10 Sep - 23:23:27 10° SE 23:25:40 11° SE 23:28:42 10° ESE night (unlit)
11 Sep - 01:20:33 10° SSW 01:29:29 57° SE 01:38:35 10° ENE visible
11 Sep - 03:25:28 10° WSW 03:34:32 55° NNW 03:43:46 10° NE visible
11 Sep - 05:32:42 10° WNW 05:41:13 37° N 05:49:58 10° ENE visible
11 Sep - 07:38:43 10° NW 07:48:00 54° NNE 07:57:37 10° E daylight
11 Sep - 09:43:45 10° WNW 09:53:17 63° SW 10:03:04 10° SE daylight
11 Sep - 11:52:10 10° W 11:57:22 15° SW 12:01:54 10° SSW daylight
12 Sep - 00:57:48 10° SSW 01:06:39 54° SE 01:15:38 10° ENE visible
12 Sep - 03:02:29 10° WSW 03:11:35 57° NNW 03:20:51 10° NE visible
12 Sep - 05:09:43 10° WNW 05:18:12 37° N 05:26:55 10° ENE visible
12 Sep - 07:15:50 10° NW 07:25:01 51° NNE 07:34:33 10° E daylight
12 Sep - 09:20:51 10° WNW 09:30:23 67° SW 09:40:13 10° SE daylight
12 Sep - 11:28:43 10° W 11:34:30 16° SW 11:39:43 10° SSW daylight
13 Sep - 00:35:04 10° SSW 00:43:48 50° SE 00:52:40 10° ENE visible
13 Sep - 02:39:31 10° WSW 02:48:38 60° NNW 02:57:56 10° NE visible
13 Sep - 04:46:42 10° WNW 04:55:11 37° N 05:03:53 10° ENE visible
13 Sep - 06:52:55 10° NW 07:02:02 50° NNE 07:11:29 10° E daylight
13 Sep - 08:57:56 10° WNW 09:07:30 71° SW 09:17:22 10° SE daylight
13 Sep - 11:05:22 10° W 11:11:38 18° SW 11:17:26 10° SSW daylight
